VK6YY Weather Reports


time (UTC)temp
C
wind
direction
speed
KPH
gust
KPH
rain 1hr
cm
rain 24hr
cm
rain mn
cm
humidity
%
barometer
mb
20260506013012 16 155 4.8 14.5 0.00 0.00 0.00 68 1027.2
20260506011508 16 117 3.2 14.5 0.00 0.00 0.00 70 1027.2
20260506010011 15 22 6.4 17.7 0.00 0.00 0.00 71 1027.0
20260506004558 15 96 4.8 12.9 0.00 0.00 0.00 73 1027.0
20260506003052 14 101 6.4 12.9 0.00 0.00 0.00 76 1026.9
20260506001547 13 101 4.8 17.7 0.00 0.00 0.00 78 1026.8
20260506000042 12 109 6.4 14.5 0.00 0.00 0.00 78 1026.6
20260505234542 12 65 6.4 14.5 0.00 0.00 0.00 78 1026.4
20260505233035 12 355 4.8 12.9 0.00 0.00 0.00 78 1026.2
20260505231544 12 76 6.4 14.5 0.00 0.00 0.00 78 1026.0
20260505230032 12 90 6.4 14.5 0.00 0.00 0.00 78 1025.7
20260505224523 12 23 4.8 12.9 0.00 0.00 0.00 78 1025.7
20260505223021 12 79 4.8 12.9 0.00 0.00 0.00 77 1025.6
20260505221517 12 136 4.8 11.3 0.00 0.00 0.00 76 1025.4
20260505220014 12 46 6.4 12.9 0.00 0.00 0.00 76 1025.3
20260505214508 12 102 6.4 17.7 0.00 0.00 0.00 76 1025.3
20260505213006 12 25 4.8 14.5 0.00 0.00 0.00 76 1025.2
20260505211503 13 206 6.4 14.5 0.00 0.00 0.00 75 1024.9
20260505210001 13 84 6.4 14.5 0.00 0.00 0.00 75 1024.9
20260505204601 13 109 6.4 17.7 0.00 0.00 0.00 74 1024.9
20260505203057 13 97 4.8 12.9 0.00 0.00 0.00 74 1024.8
20260505201556 13 127 6.4 16.1 0.00 0.00 0.00 73 1024.6
20260505200049 13 133 8.0 20.9 0.00 0.00 0.00 73 1024.6
20260505194542 13 77 4.8 12.9 0.00 0.00 0.00 72 1024.6
20260505193041 13 14 6.4 16.1 0.00 0.00 0.00 72 1024.7
20260505191542 13 82 3.2 11.3 0.00 0.00 0.00 72 1024.6
20260505190044 13 92 3.2 14.5 0.00 0.00 0.00 71 1024.6
20260505184511 13 122 3.2 12.9 0.00 0.00 0.00 71 1024.6
20260505183011 14 58 3.2 11.3 0.00 0.00 0.00 70 1024.8
20260505181506 14 120 4.8 17.7 0.00 0.00 0.00 70 1024.8
20260505180009 14 67 6.4 20.9 0.00 0.00 0.00 70 1024.7
20260505174507 15 98 4.8 16.1 0.00 0.00 0.00 70 1024.7
20260505173004 15 64 8.0 17.7 0.00 0.00 0.00 71 1024.6
20260505171502 14 110 8.0 20.9 0.00 0.00 0.00 72 1024.5
20260505170002 14 123 6.4 14.5 0.00 0.00 0.00 74 1024.5
20260505164622 13 90 4.8 12.9 0.00 0.00 0.00 76 1024.6
20260505163107 13 78 3.2 9.7 0.00 0.00 0.00 77 1024.5
20260505161614 13 109 0.0 3.2 0.00 0.00 0.00 78 1024.3
20260505153056 13 120 0.0 4.8 0.00 0.00 0.00 77 1024.3
20260505151554 14 117 0.0 6.4 0.00 0.00 0.00 77 1024.3
20260505130105 16 132 6.4 9.7 0.00 0.00 0.00 74 1024.3
20260505124551 16 138 4.8 9.7 0.00 0.00 0.00 74 1024.2
20260505124546 16 140 4.8 9.7 0.00 0.00 0.00 74 1024.2
20260505123045 16 126 6.4 11.3 0.00 0.00 0.00 74 1024.2
20260505121543 16 137 8.0 12.9 0.00 0.00 0.00 74 1024.0
20260505120011 16 138 8.0 12.9 0.00 0.00 0.00 76 1024.0
20260505114510 16 130 6.4 11.3 0.00 0.00 0.00 76 1024.1
20260505113007 17 120 6.4 11.3 0.00 0.00 0.00 76 1024.0
20260505111512 17 136 3.2 11.3 0.00 0.00 0.00 75 1024.0
20260505101503 18 157 9.7 20.9 0.00 0.00 0.00 76 1023.3
20260505100001 18 160 11.3 24.1 0.00 0.00 0.00 76 1023.3
20260505094602 18 175 9.7 19.3 0.00 0.00 0.00 75 1023.1
20260505093107 18 180 12.9 24.1 0.00 0.00 0.00 74 1023.1
20260505091556 18 192 12.9 22.5 0.00 0.00 0.00 74 1023.0
20260505090055 19 173 14.5 25.7 0.00 0.00 0.00 72 1023.0
20260505084555 19 208 11.3 32.2 0.00 0.00 0.00 72 1023.0
20260505083051 19 246 11.3 24.1 0.00 0.00 0.00 72 1022.9
20260505081553 19 188 12.9 25.7 0.00 0.00 0.00 71 1022.9
20260505080050 19 231 14.5 24.1 0.00 0.00 0.00 70 1022.9
20260505074548 20 209 12.9 25.7 0.00 0.00 0.00 70 1022.8
20260505073048 20 193 12.9 24.1 0.00 0.00 0.00 70 1022.8
20260505071551 20 179 14.5 29.0 0.00 0.00 0.00 68 1022.7
20260505070042 20 169 12.9 24.1 0.00 0.00 0.00 67 1022.8
20260505064542 20 157 12.9 24.1 0.00 0.00 0.00 67 1022.8
20260505063036 20 203 9.7 24.1 0.00 0.00 0.00 67 1022.7
20260505061536 20 257 9.7 17.7 0.00 0.00 0.00 65 1022.7
20260505060034 20 194 11.3 19.3 0.00 0.00 0.00 66 1022.8
20260505054548 20 165 6.4 17.7 0.00 0.00 0.00 67 1022.8
20260505053038 20 196 9.7 19.3 0.00 0.00 0.00 65 1022.9
20260505051536 20 246 6.4 17.7 0.00 0.00 0.00 66 1023.0
20260505041521 21 249 8.0 14.5 0.00 0.00 0.00 57 1023.8
20260505040032 21 134 1.6 9.7 0.00 0.00 0.00 50 1024.0
20260505034519 22 5 3.2 9.7 0.00 0.00 0.00 50 1024.2
20260505033011 21 5 1.6 9.7 0.00 0.00 0.00 51 1024.3
20260505031508 21 5 1.6 9.7 0.00 0.00 0.00 54 1024.4
20260505030012 21 9 3.2 12.9 0.00 0.00 0.00 54 1024.5
20260505024501 20 355 3.2 12.9 0.00 0.00 0.00 55 1024.6
20260505023028 20 27 4.8 11.3 0.00 0.00 0.00 55 1024.7
20260505021526 19 21 1.6 14.5 0.00 0.00 0.00 58 1024.8
20260505020017 18 59 1.6 9.7 0.00 0.00 0.00 61 1024.8
20260505014514 18 40 3.2 12.9 0.00 0.00 0.00 62 1024.9